Location: Fort Worth, Tx
(32.7431°N, 97.3695°W)
Time: 21:00:44
(UTC-04:00)

Vanguard 1 Rocket - Pass Details

Date: 13 September 2024
Orbit: 650 x 4218 km, 34.3° (Epoch: 11 October)

Event Time Altitude Azimuth Distance (km) Brightness Sun altitude
Exits shadow 03:54:05 32° 126° (SE) 3,755 10.3 -48.1°
Drops below altitude 10° 04:09:12 10° 77° (ENE) 6,649 12.2 -46.2°
Sets 04:16:10 0° 70° (ENE) 8,100 12.8 -45.2°
